Location: Sternwarte Stuttgart
(48.7670°N, 9.1830°E)
Time: 10:28:57
(UTC+02:00)

ASTEX 1 - Pass Details

Date: 24 January 2019
Orbit: 722 x 742 km, 92.7° (Epoch: 21 April)

Event Time Altitude Azimuth Distance (km) Brightness Sun altitude
Rises 05:59:12 0° 9° (N) 3,177 6.7 -20.2°
Reaches altitude 10° 06:01:35 10° 14° (NNE) 2,246 6.0 -19.8°
Maximum altitude 06:06:27 54° 92° (E) 892 4.2 -19.0°
Drops below altitude 10° 06:11:14 10° 169° (S) 2,217 6.1 -18.3°
Sets 06:13:34 0° 174° (S) 3,131 6.9 -17.9°
